| time (UTC) | temp C | wind direction | speed KPH | gust KPH | rain 1hr cm | rain 24hr cm | rain mn cm | humidity % | barometer mb |
| 20260504044619 | 17 | 189 | 6.4 | 12.9 | 0.00 | 0.00 | 0.00 | 61 | 1015.6 |
| 20260504043057 | 18 | 187 | 3.2 | 11.3 | 0.00 | 0.00 | 0.00 | 60 | 1015.6 |
| 20260504041556 | 18 | 189 | 6.4 | 14.5 | 0.00 | 0.00 | 0.00 | 58 | 1015.8 |
| 20260504040110 | 18 | 184 | 8.0 | 14.5 | 0.00 | 0.00 | 0.00 | 58 | 1015.8 |
| 20260504034607 | 18 | 176 | 8.0 | 16.1 | 0.00 | 0.00 | 0.00 | 57 | 1015.8 |
| 20260504033058 | 18 | 184 | 4.8 | 12.9 | 0.00 | 0.00 | 0.00 | 58 | 1015.5 |
| 20260504031559 | 18 | 181 | 3.2 | 9.7 | 0.00 | 0.00 | 0.00 | 59 | 1015.5 |
| 20260504030059 | 18 | 176 | 1.6 | 4.8 | 0.00 | 0.00 | 0.00 | 58 | 1015.4 |
| 20260504024604 | 18 | 0 | 0.0 | 4.8 | 0.00 | 0.00 | 0.00 | 58 | 1015.4 |
| 20260504023056 | 19 | 188 | 1.6 | 6.4 | 0.00 | 0.00 | 0.00 | 56 | 1015.4 |
| 20260504021556 | 20 | 0 | 0.0 | 6.4 | 0.00 | 0.00 | 0.00 | 54 | 1015.2 |
| 20260504020056 | 20 | 189 | 0.0 | 8.0 | 0.00 | 0.00 | 0.00 | 51 | 1015.1 |
| 20260504014555 | 20 | 182 | 6.4 | 12.9 | 0.00 | 0.00 | 0.00 | 49 | 1015.4 |
| 20260504013108 | 21 | 187 | 6.4 | 12.9 | 0.00 | 0.00 | 0.00 | 47 | 1015.4 |
| 20260504011556 | 21 | 360 | 9.7 | 20.9 | 0.00 | 0.00 | 0.00 | 44 | 1015.3 |
| 20260504010101 | 22 | 182 | 9.7 | 24.1 | 0.00 | 0.00 | 0.00 | 43 | 1015.2 |
| 20260504004608 | 22 | 179 | 8.0 | 17.7 | 0.00 | 0.00 | 0.00 | 43 | 1015.3 |
| 20260504003055 | 22 | 178 | 9.7 | 19.3 | 0.00 | 0.00 | 0.00 | 42 | 1015.4 |
| 20260504001555 | 22 | 167 | 9.7 | 19.3 | 0.00 | 0.00 | 0.00 | 41 | 1015.3 |
| 20260504000114 | 23 | 223 | 11.3 | 22.5 | 0.00 | 0.00 | 0.00 | 41 | 1015.4 |
| 20260503234554 | 23 | 179 | 9.7 | 24.1 | 0.00 | 0.00 | 0.00 | 41 | 1015.6 |
| 20260503233057 | 23 | 360 | 11.3 | 24.1 | 0.00 | 0.00 | 0.00 | 40 | 1015.6 |
| 20260503231558 | 23 | 195 | 6.4 | 17.7 | 0.00 | 0.00 | 0.00 | 41 | 1015.6 |
| 20260503224559 | 23 | 196 | 12.9 | 24.1 | 0.00 | 0.00 | 0.00 | 40 | 1015.9 |
| 20260503223057 | 23 | 360 | 14.5 | 27.4 | 0.00 | 0.00 | 0.00 | 40 | 1016.0 |
| 20260503221610 | 23 | 196 | 9.7 | 19.3 | 0.00 | 0.00 | 0.00 | 39 | 1016.3 |
| 20260503220122 | 24 | 360 | 9.7 | 20.9 | 0.00 | 0.00 | 0.00 | 38 | 1016.5 |
| 20260503214601 | 23 | 194 | 14.5 | 25.7 | 0.00 | 0.00 | 0.00 | 37 | 1016.5 |
| 20260503213100 | 24 | 156 | 8.0 | 22.5 | 0.00 | 0.00 | 0.00 | 38 | 1016.5 |
| 20260503211556 | 25 | 360 | 12.9 | 30.6 | 0.00 | 0.00 | 0.00 | 37 | 1016.7 |
| 20260503210057 | 25 | 360 | 9.7 | 22.5 | 0.00 | 0.00 | 0.00 | 37 | 1017.3 |
| 20260503204554 | 25 | 197 | 11.3 | 25.7 | 0.00 | 0.00 | 0.00 | 38 | 1017.6 |
| 20260503203059 | 25 | 360 | 11.3 | 24.1 | 0.00 | 0.00 | 0.00 | 37 | 1017.9 |
| 20260503201559 | 24 | 360 | 14.5 | 22.5 | 0.00 | 0.00 | 0.00 | 39 | 1018.4 |
| 20260503200101 | 24 | 121 | 4.8 | 16.1 | 0.00 | 0.00 | 0.00 | 39 | 1018.6 |
| 20260503194556 | 25 | 199 | 4.8 | 25.7 | 0.00 | 0.00 | 0.00 | 38 | 1018.8 |
| 20260503193103 | 23 | 169 | 4.8 | 22.5 | 0.00 | 0.00 | 0.00 | 39 | 1019.0 |
| 20260503191602 | 24 | 173 | 8.0 | 24.1 | 0.00 | 0.00 | 0.00 | 39 | 1019.3 |
| 20260503190054 | 23 | 221 | 9.7 | 24.1 | 0.00 | 0.00 | 0.00 | 40 | 1019.5 |
| 20260503184604 | 23 | 178 | 8.0 | 29.0 | 0.00 | 0.00 | 0.00 | 39 | 1019.8 |
| 20260503183056 | 23 | 360 | 9.7 | 24.1 | 0.00 | 0.00 | 0.00 | 41 | 1019.9 |
| 20260503181602 | 23 | 108 | 8.0 | 17.7 | 0.00 | 0.00 | 0.00 | 39 | 1020.2 |
| 20260503180106 | 23 | 182 | 12.9 | 20.9 | 0.00 | 0.00 | 0.00 | 42 | 1020.5 |
| 20260503174554 | 22 | 195 | 9.7 | 25.7 | 0.00 | 0.00 | 0.00 | 41 | 1020.7 |
| 20260503173103 | 22 | 360 | 8.0 | 25.7 | 0.00 | 0.00 | 0.00 | 44 | 1020.9 |
| 20260503171554 | 22 | 360 | 12.9 | 24.1 | 0.00 | 0.00 | 0.00 | 41 | 1021.1 |
| 20260503160114 | 21 | 217 | 9.7 | 20.9 | 0.00 | 0.00 | 0.00 | 49 | 1022.2 |
| 20260503081556 | 10 | 188 | 0.0 | 3.2 | 0.00 | 0.00 | 0.00 | 86 | 1021.4 |
| 20260503071612 | 11 | 0 | 0.0 | 0.0 | 0.00 | 0.00 | 0.00 | 83 | 1021.5 |
| 20260503070111 | 11 | 0 | 0.0 | 0.0 | 0.00 | 0.00 | 0.00 | 83 | 1021.5 |